sat.trackr.live / text

‹ back to catalog

STARLINK-31020

NORAD 58509 · 2023-191B

PAYLOAD ACTIVE UNKNOWN

§ Identity

Operator
Country
US
Launch date
2023-12-07
Launch site
AFETR
Launch vehicle
Mass (kg)
RCS (m²)

Purposes: comms

External: N2YO · Heavens-Above · Gunter

§ Orbital elements

Epoch: 2026-05-25T00:19:02.430048Z

Period
94.27 min
Inclination
43.0041°
Eccentricity
0.0001336
Mean motion
15.27574427 rev/d
Perigee alt
482.1 km
Apogee alt
484.0 km
Semi-major
6,861.2 km
B*
-2.8348e-4
RAAN
39.2437°
Arg perigee
256.0639°
Mean anomaly
104.0064°
Rev number
13,706

§ Raw data

STARLINK-310201 58509U 23191B   26145.01322257 -.00008053  00000+0 -28348-3 0  99982 58509  43.0041  39.2437 0001336 256.0639 104.0064 15.27574427137069

JSON: /api/v1/satellites/58509 · /tle

For live sub-satellite position, see the globe view (requires WebGL).

§ Visibility from observer

Set your observer location to see the next 7 days of passes ≥ 10°. The values pass through the URL so the page stays shareable.

No JS? Fill the form by hand. The geolocation button needs JavaScript.